ACA269 CYYZ-CYWG

Flight info

Callsign ACA269
Flight time 2h 8m
Altitude 36000
Route AVSEP7 MUSIT DCT SSM DCT AGLIN DCT GOVIT NORAK6
Aircraft A320/M-SDE3FGHIRWY/LB1

Departure

Time 2026-05-08 00:38
Airport Toronto Pearson International Airport (CYYZ)

Arrival

Time 2026-05-08 02:47
Airport Winnipeg / James Armstrong Richardson International Airport (CYWG)
Time Latitude Longitude Altitude Speed Heading
2026-05-08 00:17 43.68026 -79.61361 568 ft 0 kts 15°
2026-05-08 00:27 43.68025 -79.61362 561 ft 2 kts 15°
2026-05-08 00:27 43.68009 -79.61368 571 ft 2 kts 15°
2026-05-08 00:27 43.67994 -79.61374 570 ft 2 kts 15°
2026-05-08 00:28 43.67978 -79.61379 567 ft 2 kts
2026-05-08 00:28 43.67962 -79.61379 566 ft 2 kts 322°
2026-05-08 00:28 43.67955 -79.61370 564 ft 0 kts 295°
2026-05-08 00:30 43.67954 -79.61389 566 ft 7 kts 251°
2026-05-08 00:30 43.67896 -79.61436 561 ft 9 kts 204°
2026-05-08 00:31 43.67859 -79.61487 562 ft 6 kts 228°
2026-05-08 00:31 43.67836 -79.61521 570 ft 3 kts 228°
2026-05-08 00:31 43.67825 -79.61537 561 ft 1 kts 225°
2026-05-08 00:31 43.67817 -79.61548 566 ft 5 kts 225°
2026-05-08 00:32 43.67765 -79.61623 561 ft 15 kts 226°
2026-05-08 00:32 43.67675 -79.61641 564 ft 13 kts 179°
2026-05-08 00:32 43.67632 -79.61715 563 ft 9 kts 280°
2026-05-08 00:32 43.67681 -79.61788 563 ft 15 kts 316°
2026-05-08 00:33 43.67771 -79.61906 564 ft 19 kts 316°
2026-05-08 00:33 43.67869 -79.62032 562 ft 20 kts 317°
2026-05-08 00:33 43.67989 -79.62123 563 ft 20 kts 316°
2026-05-08 00:33 43.68091 -79.62257 563 ft 20 kts 316°
2026-05-08 00:34 43.68195 -79.62393 567 ft 20 kts 317°
2026-05-08 00:34 43.68303 -79.62519 562 ft 20 kts 319°
2026-05-08 00:34 43.68405 -79.62653 562 ft 20 kts 316°
2026-05-08 00:34 43.68510 -79.62790 562 ft 21 kts 317°
2026-05-08 00:35 43.68617 -79.62929 561 ft 21 kts 316°
2026-05-08 00:35 43.68728 -79.63073 561 ft 22 kts 316°
2026-05-08 00:35 43.68841 -79.63221 564 ft 23 kts 316°
2026-05-08 00:35 43.68954 -79.63369 567 ft 22 kts 316°
2026-05-08 00:36 43.69058 -79.63506 569 ft 17 kts 316°
2026-05-08 00:36 43.69151 -79.63484 565 ft 16 kts 45°
2026-05-08 00:36 43.69242 -79.63423 566 ft 15 kts 360°
2026-05-08 00:36 43.69337 -79.63420 564 ft 8 kts
2026-05-08 00:37 43.69375 -79.63444 563 ft 6 kts 314°
2026-05-08 00:37 43.69410 -79.63499 562 ft 9 kts 288°
2026-05-08 00:37 43.69373 -79.63569 565 ft 15 kts 226°
2026-05-08 00:38 43.68608 -79.64677 567 ft 140 kts 226°
2026-05-08 00:38 43.67846 -79.65784 778 ft 165 kts 227°
2026-05-08 00:38 43.67061 -79.66954 1450 ft 167 kts 231°
2026-05-08 00:38 43.66359 -79.68218 2102 ft 170 kts 236°
2026-05-08 00:39 43.65642 -79.69648 2451 ft 190 kts 238°
2026-05-08 00:39 43.64865 -79.71249 2731 ft 212 kts 238°
2026-05-08 00:39 43.64003 -79.73025 2986 ft 238 kts 238°
2026-05-08 00:39 43.63029 -79.75021 3568 ft 253 kts 237°
2026-05-08 00:40 43.62031 -79.77040 4406 ft 257 kts 237°
2026-05-08 00:40 43.61036 -79.79105 5268 ft 259 kts 243°
2026-05-08 00:40 43.60534 -79.81429 6155 ft 257 kts 268°
2026-05-08 00:40 43.60814 -79.83883 7028 ft 259 kts 291°
2026-05-08 00:41 43.61821 -79.85905 7868 ft 264 kts 315°
2026-05-08 00:41 43.63378 -79.87310 8699 ft 270 kts 326°
2026-05-08 00:41 43.65016 -79.88590 9543 ft 271 kts 326°
2026-05-08 00:41 43.66669 -79.89876 10279 ft 276 kts 326°
2026-05-08 00:42 43.68408 -79.91233 10532 ft 298 kts 326°
2026-05-08 00:42 43.70282 -79.92702 10708 ft 320 kts 326°
2026-05-08 00:42 43.72253 -79.94250 11222 ft 330 kts 327°
2026-05-08 00:42 43.74261 -79.95826 11890 ft 334 kts 327°
2026-05-08 00:43 43.76294 -79.97419 12570 ft 338 kts 327°
2026-05-08 00:43 43.78349 -79.99033 13252 ft 341 kts 327°
2026-05-08 00:43 43.80424 -80.00669 13923 ft 345 kts 327°
2026-05-08 00:43 43.82524 -80.02324 14527 ft 348 kts 327°
2026-05-08 00:44 43.84636 -80.03992 15143 ft 350 kts 327°
2026-05-08 00:44 43.86761 -80.05676 15768 ft 353 kts 327°
2026-05-08 00:44 43.88899 -80.07371 16396 ft 355 kts 327°
2026-05-08 00:44 43.91050 -80.09078 16992 ft 357 kts 327°
2026-05-08 00:45 43.93092 -80.11043 17588 ft 357 kts 317°
2026-05-08 00:45 43.94831 -80.13501 18184 ft 358 kts 307°
2026-05-08 00:45 43.96339 -80.16259 18706 ft 360 kts 306°
2026-05-08 00:45 43.97846 -80.19046 19236 ft 362 kts 306°
2026-05-08 00:46 43.99361 -80.21850 19755 ft 365 kts 306°
2026-05-08 00:46 44.00373 -80.23720 20099 ft 366 kts 306°
2026-05-08 00:46 44.01910 -80.26566 20591 ft 370 kts 306°
2026-05-08 00:46 44.03461 -80.29437 21085 ft 373 kts 306°
2026-05-08 00:47 44.05021 -80.32334 21573 ft 376 kts 306°
2026-05-08 00:47 44.06592 -80.35253 22048 ft 379 kts 306°
2026-05-08 00:47 44.08173 -80.38197 22514 ft 381 kts 306°
2026-05-08 00:47 44.09765 -80.41167 22970 ft 384 kts 306°
2026-05-08 00:48 44.11368 -80.44155 23406 ft 387 kts 306°
2026-05-08 00:48 44.12985 -80.47165 23787 ft 389 kts 306°
2026-05-08 00:48 44.14725 -80.50068 24160 ft 392 kts 312°
2026-05-08 00:48 44.16601 -80.52836 24515 ft 394 kts 312°
2026-05-08 00:49 44.18481 -80.55624 24873 ft 395 kts 311°
2026-05-08 00:49 44.20364 -80.58427 25233 ft 397 kts 311°
2026-05-08 00:49 44.22251 -80.61243 25579 ft 399 kts 311°
2026-05-08 00:49 44.24148 -80.64075 25915 ft 401 kts 311°
2026-05-08 00:50 44.26054 -80.66928 26226 ft 403 kts 311°
2026-05-08 00:50 44.27975 -80.69797 26545 ft 405 kts 311°
2026-05-08 00:50 44.29902 -80.72682 26866 ft 407 kts 311°
2026-05-08 00:50 44.31837 -80.75582 27181 ft 409 kts 311°
2026-05-08 00:51 44.33780 -80.78496 27490 ft 411 kts 311°
2026-05-08 00:51 44.35731 -80.81424 27794 ft 413 kts 311°
2026-05-08 00:51 44.37689 -80.84366 28091 ft 414 kts 311°
2026-05-08 00:51 44.39628 -80.87281 28376 ft 416 kts 311°
2026-05-08 00:52 44.41634 -80.90296 28659 ft 418 kts 311°
2026-05-08 00:52 44.43615 -80.93275 28947 ft 419 kts 311°
2026-05-08 00:52 44.45600 -80.96264 29219 ft 420 kts 311°
2026-05-08 00:52 44.47565 -80.99229 29468 ft 421 kts 311°
2026-05-08 00:53 44.49586 -81.02282 29717 ft 423 kts 311°
2026-05-08 00:53 44.51560 -81.05271 29948 ft 424 kts 311°
2026-05-08 00:53 44.53565 -81.08311 30154 ft 425 kts 311°
2026-05-08 00:53 44.55571 -81.11352 30393 ft 425 kts 310°
2026-05-08 00:54 44.57577 -81.14395 30641 ft 424 kts 310°
2026-05-08 00:54 44.59576 -81.17437 30886 ft 424 kts 310°
2026-05-08 00:54 44.61573 -81.20482 31128 ft 424 kts 310°
2026-05-08 00:54 44.63569 -81.23523 31370 ft 424 kts 310°
2026-05-08 00:55 44.65565 -81.26568 31612 ft 423 kts 310°
2026-05-08 00:55 44.67557 -81.29611 31868 ft 424 kts 310°
2026-05-08 00:55 44.69552 -81.32659 32090 ft 424 kts 310°
2026-05-08 00:55 44.71547 -81.35706 32342 ft 423 kts 310°
2026-05-08 00:56 44.73538 -81.38753 32585 ft 423 kts 310°
2026-05-08 00:56 44.75527 -81.41802 32831 ft 423 kts 309°
2026-05-08 00:56 44.77516 -81.44854 33077 ft 423 kts 309°
2026-05-08 00:56 44.79501 -81.47902 33322 ft 422 kts 309°
2026-05-08 00:57 44.81484 -81.50952 33567 ft 422 kts 309°
2026-05-08 00:57 44.83465 -81.54003 33815 ft 422 kts 309°
2026-05-08 00:57 44.85444 -81.57054 34039 ft 422 kts 309°
2026-05-08 00:57 44.87422 -81.60108 34233 ft 422 kts 309°
2026-05-08 00:58 44.89397 -81.63162 34442 ft 422 kts 309°
2026-05-08 00:58 44.91372 -81.66221 34612 ft 422 kts 309°
2026-05-08 00:58 44.93351 -81.69283 34790 ft 422 kts 309°
2026-05-08 00:58 44.95330 -81.72348 34960 ft 422 kts 309°
2026-05-08 00:59 44.97307 -81.75415 35134 ft 422 kts 309°
2026-05-08 00:59 44.99282 -81.78487 35307 ft 422 kts 309°
2026-05-08 00:59 45.01258 -81.81558 35474 ft 422 kts 309°
2026-05-08 00:59 45.03231 -81.84631 35634 ft 422 kts 309°
2026-05-08 01:00 45.05204 -81.87708 35793 ft 422 kts 309°
2026-05-08 01:00 45.07173 -81.90784 35924 ft 422 kts 309°
2026-05-08 01:00 45.09145 -81.93865 35956 ft 422 kts 309°
2026-05-08 01:01 45.13091 -82.00034 35952 ft 423 kts 309°
2026-05-08 01:01 45.17038 -82.06220 35950 ft 423 kts 309°
2026-05-08 01:02 45.20986 -82.12422 35950 ft 423 kts 309°
2026-05-08 01:02 45.24931 -82.18622 35950 ft 423 kts 309°
2026-05-08 01:03 45.28869 -82.24833 35947 ft 423 kts 309°
2026-05-08 01:03 45.32800 -82.31057 35965 ft 423 kts 309°
2026-05-08 01:04 45.36725 -82.37289 35953 ft 423 kts 309°
2026-05-08 01:04 45.40631 -82.43557 35946 ft 423 kts 307°
2026-05-08 01:05 45.44309 -82.50081 35941 ft 422 kts 305°
2026-05-08 01:05 45.47884 -82.56715 35935 ft 422 kts 305°
2026-05-08 01:06 45.51460 -82.63357 35935 ft 422 kts 305°
2026-05-08 01:06 45.55083 -82.69956 35946 ft 423 kts 306°
2026-05-08 01:07 45.58717 -82.76557 35935 ft 423 kts 306°
2026-05-08 01:07 45.62335 -82.83181 35925 ft 423 kts 305°
2026-05-08 01:08 45.65950 -82.89823 35930 ft 423 kts 306°
2026-05-08 01:08 45.69577 -82.96455 35928 ft 423 kts 306°
2026-05-08 01:09 45.73193 -83.03107 35939 ft 423 kts 306°
2026-05-08 01:09 45.76805 -83.09765 35953 ft 423 kts 306°
2026-05-08 01:10 45.80413 -83.16438 35939 ft 424 kts 306°
2026-05-08 01:10 45.84019 -83.23127 35937 ft 424 kts 305°
2026-05-08 01:11 45.87595 -83.29787 35936 ft 424 kts 305°
2026-05-08 01:11 45.91196 -83.36498 35928 ft 424 kts 305°
2026-05-08 01:12 45.94781 -83.43228 35927 ft 424 kts 305°
2026-05-08 01:12 45.98369 -83.49962 35928 ft 424 kts 305°
2026-05-08 01:13 46.01960 -83.56704 35933 ft 425 kts 305°
2026-05-08 01:13 46.05550 -83.63468 35929 ft 425 kts 305°
2026-05-08 01:14 46.09148 -83.70233 35924 ft 425 kts 305°
2026-05-08 01:14 46.12730 -83.77013 35922 ft 425 kts 305°
2026-05-08 01:15 46.16311 -83.83800 35927 ft 425 kts 305°
2026-05-08 01:15 46.19890 -83.90588 35932 ft 425 kts 305°
2026-05-08 01:16 46.23464 -83.97396 35944 ft 426 kts 305°
2026-05-08 01:16 46.27030 -84.04223 35934 ft 426 kts 305°
2026-05-08 01:17 46.30595 -84.11054 35928 ft 425 kts 305°
2026-05-08 01:17 46.34159 -84.17888 35924 ft 425 kts 305°
2026-05-08 01:18 46.37713 -84.24737 35923 ft 426 kts 305°
2026-05-08 01:18 46.41232 -84.31631 35917 ft 425 kts 301°
2026-05-08 01:19 46.44193 -84.39035 35940 ft 425 kts 298°
2026-05-08 01:19 46.47123 -84.46475 35931 ft 425 kts 298°
2026-05-08 01:20 46.50043 -84.53919 35926 ft 425 kts 298°
2026-05-08 01:20 46.52961 -84.61379 35924 ft 425 kts 298°
2026-05-08 01:21 46.55868 -84.68851 35921 ft 425 kts 298°
2026-05-08 01:21 46.58780 -84.76334 35916 ft 425 kts 298°
2026-05-08 01:22 46.61695 -84.83818 35922 ft 425 kts 298°
2026-05-08 01:22 46.64603 -84.91317 35925 ft 425 kts 298°
2026-05-08 01:23 46.67501 -84.98825 35924 ft 426 kts 298°
2026-05-08 01:23 46.70397 -85.06343 35926 ft 426 kts 298°
2026-05-08 01:24 46.73260 -85.13827 35915 ft 426 kts 298°
2026-05-08 01:24 46.76139 -85.21365 35919 ft 426 kts 298°
2026-05-08 01:25 46.79021 -85.28906 35916 ft 425 kts 298°
2026-05-08 01:25 46.81896 -85.36454 35919 ft 425 kts 298°
2026-05-08 01:26 46.84766 -85.44011 35926 ft 425 kts 298°
2026-05-08 01:26 46.87632 -85.51575 35929 ft 425 kts 298°
2026-05-08 01:27 46.90492 -85.59151 35940 ft 426 kts 298°
2026-05-08 01:27 46.93346 -85.66748 35933 ft 426 kts 298°
2026-05-08 01:28 46.96195 -85.74357 35927 ft 426 kts 298°
2026-05-08 01:28 46.99051 -85.81972 35927 ft 427 kts 298°
2026-05-08 01:29 47.01901 -85.89600 35918 ft 427 kts 298°
2026-05-08 01:29 47.04739 -85.97232 35920 ft 426 kts 298°
2026-05-08 01:30 47.07575 -86.04872 35926 ft 426 kts 298°
2026-05-08 01:30 47.10402 -86.12519 35928 ft 426 kts 298°
2026-05-08 01:31 47.13218 -86.20175 35940 ft 426 kts 298°
2026-05-08 01:31 47.16044 -86.27840 35932 ft 427 kts 298°
2026-05-08 01:32 47.18387 -86.34219 35922 ft 427 kts 298°
2026-05-08 01:32 47.21648 -86.43159 35925 ft 427 kts 298°
2026-05-08 01:33 47.24455 -86.50847 35928 ft 427 kts 298°
2026-05-08 01:33 47.26801 -86.57300 35925 ft 427 kts 298°
2026-05-08 01:34 47.29593 -86.65005 35925 ft 427 kts 298°
2026-05-08 01:34 47.32389 -86.72714 35911 ft 426 kts 298°
2026-05-08 01:35 47.35178 -86.80427 35930 ft 426 kts 298°
2026-05-08 01:35 47.37935 -86.88105 35925 ft 427 kts 298°
2026-05-08 01:36 47.40725 -86.95900 35917 ft 427 kts 298°
2026-05-08 01:36 47.43477 -87.03597 35912 ft 427 kts 298°
2026-05-08 01:37 47.46249 -87.11355 35905 ft 427 kts 298°
2026-05-08 01:37 47.49015 -87.19123 35910 ft 427 kts 298°
2026-05-08 01:38 47.51771 -87.26890 35914 ft 426 kts 298°
2026-05-08 01:38 47.54510 -87.34674 35908 ft 426 kts 298°
2026-05-08 01:39 47.57245 -87.42455 35926 ft 426 kts 298°
2026-05-08 01:39 47.59985 -87.50250 35909 ft 426 kts 298°
2026-05-08 01:40 47.62717 -87.58040 35908 ft 426 kts 298°
2026-05-08 01:40 47.65442 -87.65833 35908 ft 425 kts 298°
2026-05-08 01:41 47.68155 -87.73634 35909 ft 425 kts 298°
2026-05-08 01:41 47.70861 -87.81436 35904 ft 425 kts 298°
2026-05-08 01:42 47.73552 -87.89191 35903 ft 425 kts 298°
2026-05-08 01:42 47.76264 -87.97049 35897 ft 424 kts 298°
2026-05-08 01:43 47.78943 -88.04852 35923 ft 424 kts 298°
2026-05-08 01:43 47.81595 -88.12605 35912 ft 423 kts 298°
2026-05-08 01:44 47.84270 -88.20410 35906 ft 423 kts 298°
2026-05-08 01:44 47.86936 -88.28220 35906 ft 423 kts 297°
2026-05-08 01:45 47.89587 -88.36041 35888 ft 423 kts 298°
2026-05-08 01:45 47.92234 -88.43859 35894 ft 422 kts 298°
2026-05-08 01:46 47.94878 -88.51677 35898 ft 422 kts 298°
2026-05-08 01:46 47.97511 -88.59504 35898 ft 422 kts 297°
2026-05-08 01:47 48.00135 -88.67334 35890 ft 422 kts 297°
2026-05-08 01:47 48.02766 -88.75169 35878 ft 422 kts 298°
2026-05-08 01:48 48.06693 -88.86936 35889 ft 422 kts 297°
2026-05-08 01:48 48.09298 -88.94798 35889 ft 422 kts 297°
2026-05-08 01:49 48.11900 -89.02663 35887 ft 422 kts 297°
2026-05-08 01:49 48.14503 -89.10532 35887 ft 422 kts 297°
2026-05-08 01:50 48.17096 -89.18407 35873 ft 421 kts 297°
2026-05-08 01:50 48.19682 -89.26286 35882 ft 421 kts 297°
2026-05-08 01:51 48.22263 -89.34160 35897 ft 421 kts 297°
2026-05-08 01:51 48.24830 -89.42044 35903 ft 421 kts 297°
2026-05-08 01:52 48.26909 -89.50262 35900 ft 422 kts 291°
2026-05-08 01:52 48.28854 -89.58566 35898 ft 422 kts 291°
2026-05-08 01:53 48.30786 -89.66819 35896 ft 422 kts 291°
2026-05-08 01:53 48.32725 -89.75126 35896 ft 421 kts 291°
2026-05-08 01:54 48.34658 -89.83444 35898 ft 421 kts 291°
2026-05-08 01:54 48.36583 -89.91765 35899 ft 421 kts 291°
2026-05-08 01:55 48.38499 -90.00099 35877 ft 421 kts 291°
2026-05-08 01:55 48.40406 -90.08427 35898 ft 421 kts 291°
2026-05-08 01:56 48.42301 -90.16751 35904 ft 420 kts 291°
2026-05-08 01:56 48.44192 -90.25065 35922 ft 420 kts 291°
2026-05-08 01:57 48.46080 -90.33383 35916 ft 419 kts 291°
2026-05-08 01:57 48.47960 -90.41701 35912 ft 419 kts 291°
2026-05-08 01:58 48.49832 -90.50023 35899 ft 419 kts 291°
2026-05-08 01:58 48.51693 -90.58336 35909 ft 418 kts 291°
2026-05-08 01:59 48.53545 -90.66653 35912 ft 418 kts 291°
2026-05-08 01:59 48.55391 -90.74966 35918 ft 418 kts 291°
2026-05-08 02:00 48.57222 -90.83227 35918 ft 418 kts 291°
2026-05-08 02:00 48.59055 -90.91545 35909 ft 417 kts 291°
2026-05-08 02:01 48.60874 -90.99858 35919 ft 417 kts 291°
2026-05-08 02:01 48.62694 -91.08175 35921 ft 417 kts 291°
2026-05-08 02:02 48.64501 -91.16491 35920 ft 416 kts 291°
2026-05-08 02:02 48.66307 -91.24818 35928 ft 416 kts 291°
2026-05-08 02:03 48.68114 -91.33142 35899 ft 417 kts 291°
2026-05-08 02:03 48.69906 -91.41477 35907 ft 416 kts 290°
2026-05-08 02:04 48.71691 -91.49818 35911 ft 416 kts 290°
2026-05-08 02:04 48.73468 -91.58162 35917 ft 416 kts 290°
2026-05-08 02:05 48.75250 -91.66510 35919 ft 416 kts 290°
2026-05-08 02:05 48.77027 -91.74859 35895 ft 416 kts 290°
2026-05-08 02:06 48.78787 -91.83217 35909 ft 416 kts 290°
2026-05-08 02:06 48.80536 -91.91576 35916 ft 416 kts 290°
2026-05-08 02:07 48.82284 -91.99938 35914 ft 416 kts 290°
2026-05-08 02:07 48.84027 -92.08300 35914 ft 416 kts 290°
2026-05-08 02:08 48.85763 -92.16671 35913 ft 416 kts 290°
2026-05-08 02:08 48.87489 -92.25045 35899 ft 415 kts 290°
2026-05-08 02:09 48.89194 -92.33365 35907 ft 415 kts 290°
2026-05-08 02:09 48.90908 -92.41737 35908 ft 415 kts 290°
2026-05-08 02:10 48.92621 -92.50115 35910 ft 415 kts 290°
2026-05-08 02:10 48.94322 -92.58500 35918 ft 415 kts 290°
2026-05-08 02:11 48.96010 -92.66886 35887 ft 414 kts 289°
2026-05-08 02:11 48.97693 -92.75271 35899 ft 414 kts 289°
2026-05-08 02:12 48.99379 -92.83655 35900 ft 414 kts 289°
2026-05-08 02:12 49.01057 -92.92042 35902 ft 414 kts 289°
2026-05-08 02:13 49.02721 -93.00434 35906 ft 414 kts 289°
2026-05-08 02:13 49.04380 -93.08828 35899 ft 414 kts 289°
2026-05-08 02:14 49.06035 -93.17228 35903 ft 413 kts 289°
2026-05-08 02:14 49.07685 -93.25623 35903 ft 413 kts 289°
2026-05-08 02:15 49.09327 -93.34019 35905 ft 413 kts 289°
2026-05-08 02:15 49.10957 -93.42426 35902 ft 413 kts 289°
2026-05-08 02:16 49.12578 -93.50834 35899 ft 413 kts 289°
2026-05-08 02:16 49.14199 -93.59240 35884 ft 412 kts 289°
2026-05-08 02:17 49.15810 -93.67641 35891 ft 412 kts 289°
2026-05-08 02:17 49.17418 -93.76041 35898 ft 412 kts 289°
2026-05-08 02:18 49.19015 -93.84439 35903 ft 411 kts 289°
2026-05-08 02:18 49.20605 -93.92838 35894 ft 411 kts 289°
2026-05-08 02:19 49.22189 -94.01243 35893 ft 411 kts 289°
2026-05-08 02:19 49.23769 -94.09650 35909 ft 411 kts 289°
2026-05-08 02:20 49.25344 -94.18061 35904 ft 411 kts 289°
2026-05-08 02:20 49.26641 -94.25066 35900 ft 412 kts 289°
2026-05-08 02:21 49.28196 -94.33501 35896 ft 412 kts 289°
2026-05-08 02:21 49.29753 -94.41940 35895 ft 412 kts 289°
2026-05-08 02:22 49.31296 -94.50383 35820 ft 412 kts 289°
2026-05-08 02:22 49.32068 -94.54597 35564 ft 410 kts 289°
2026-05-08 02:22 49.32838 -94.58789 35318 ft 408 kts 289°
2026-05-08 02:23 49.33607 -94.62969 35079 ft 407 kts 289°
2026-05-08 02:23 49.34372 -94.67138 34840 ft 406 kts 289°
2026-05-08 02:23 49.35130 -94.71298 34604 ft 405 kts 289°
2026-05-08 02:23 49.35878 -94.75450 34370 ft 404 kts 289°
2026-05-08 02:24 49.36623 -94.79596 33911 ft 403 kts 289°
2026-05-08 02:24 49.37370 -94.83760 32985 ft 405 kts 289°
2026-05-08 02:24 49.38112 -94.87923 32179 ft 404 kts 289°
2026-05-08 02:24 49.38848 -94.92061 31585 ft 398 kts 289°
2026-05-08 02:25 49.39571 -94.96126 31076 ft 392 kts 289°
2026-05-08 02:25 49.40282 -95.00130 30550 ft 386 kts 289°
2026-05-08 02:25 49.40984 -95.04090 30021 ft 382 kts 290°
2026-05-08 02:25 49.41679 -95.08000 29461 ft 377 kts 290°
2026-05-08 02:26 49.42365 -95.11861 28955 ft 372 kts 290°
2026-05-08 02:26 49.43037 -95.15662 28436 ft 366 kts 290°
2026-05-08 02:26 49.43700 -95.19408 27955 ft 361 kts 290°
2026-05-08 02:26 49.44356 -95.23106 27472 ft 356 kts 290°
2026-05-08 02:27 49.44998 -95.26757 27000 ft 352 kts 289°
2026-05-08 02:27 49.45628 -95.30374 26525 ft 348 kts 289°
2026-05-08 02:27 49.46252 -95.33951 26073 ft 345 kts 289°
2026-05-08 02:27 49.46869 -95.37497 25597 ft 342 kts 290°
2026-05-08 02:28 49.47479 -95.41006 25176 ft 338 kts 290°
2026-05-08 02:28 49.48084 -95.44476 24749 ft 335 kts 290°
2026-05-08 02:28 49.48683 -95.47917 24322 ft 331 kts 290°
2026-05-08 02:28 49.49267 -95.51275 23923 ft 328 kts 290°
2026-05-08 02:29 49.49851 -95.54646 23518 ft 325 kts 290°
2026-05-08 02:29 49.50429 -95.57992 23079 ft 322 kts 290°
2026-05-08 02:29 49.51007 -95.61357 22696 ft 320 kts 290°
2026-05-08 02:29 49.51569 -95.64616 22321 ft 319 kts 290°
2026-05-08 02:30 49.52134 -95.67900 21934 ft 317 kts 290°
2026-05-08 02:30 49.52693 -95.71171 21578 ft 315 kts 290°
2026-05-08 02:30 49.53247 -95.74425 21202 ft 313 kts 290°
2026-05-08 02:30 49.53798 -95.77659 20816 ft 312 kts 290°
2026-05-08 02:31 49.54355 -95.80875 20436 ft 309 kts 291°
2026-05-08 02:31 49.55116 -95.83942 19995 ft 305 kts 297°
2026-05-08 02:31 49.55948 -95.86938 19588 ft 303 kts 297°
2026-05-08 02:31 49.56776 -95.89916 19159 ft 302 kts 297°
2026-05-08 02:32 49.57599 -95.92880 18844 ft 300 kts 297°
2026-05-08 02:32 49.58412 -95.95829 18436 ft 299 kts 296°
2026-05-08 02:32 49.59224 -95.98773 17976 ft 298 kts 296°
2026-05-08 02:32 49.60035 -96.01715 17505 ft 297 kts 296°
2026-05-08 02:33 49.60838 -96.04641 17069 ft 296 kts 296°
2026-05-08 02:33 49.61635 -96.07555 16645 ft 294 kts 296°
2026-05-08 02:33 49.62430 -96.10458 16217 ft 293 kts 296°
2026-05-08 02:33 49.63224 -96.13349 15793 ft 292 kts 296°
2026-05-08 02:34 49.64017 -96.16231 15367 ft 292 kts 296°
2026-05-08 02:34 49.64806 -96.19110 14947 ft 291 kts 296°
2026-05-08 02:34 49.65594 -96.21987 14525 ft 291 kts 295°
2026-05-08 02:34 49.66381 -96.24864 14102 ft 291 kts 295°
2026-05-08 02:35 49.67166 -96.27749 13674 ft 291 kts 295°
2026-05-08 02:35 49.67950 -96.30635 13198 ft 291 kts 295°
2026-05-08 02:35 49.68732 -96.33510 12752 ft 289 kts 295°
2026-05-08 02:35 49.69507 -96.36364 12325 ft 288 kts 295°
2026-05-08 02:36 49.70279 -96.39207 11899 ft 286 kts 295°
2026-05-08 02:36 49.71045 -96.42040 11457 ft 285 kts 295°
2026-05-08 02:36 49.71807 -96.44861 11012 ft 284 kts 295°
2026-05-08 02:36 49.72564 -96.47676 10576 ft 283 kts 295°
2026-05-08 02:37 49.73313 -96.50453 10363 ft 274 kts 295°
2026-05-08 02:37 49.73882 -96.53216 10218 ft 267 kts 285°
2026-05-08 02:37 49.74112 -96.56044 9967 ft 263 kts 281°
2026-05-08 02:37 49.74310 -96.58837 9843 ft 261 kts 281°
2026-05-08 02:38 49.74508 -96.61619 9715 ft 260 kts 281°
2026-05-08 02:38 49.74706 -96.64411 9297 ft 262 kts 281°
2026-05-08 02:38 49.74904 -96.67202 8899 ft 260 kts 280°
2026-05-08 02:38 49.75103 -96.69979 8468 ft 259 kts 280°
2026-05-08 02:39 49.75298 -96.72720 8112 ft 255 kts 280°
2026-05-08 02:39 49.75493 -96.75446 7673 ft 254 kts 280°
2026-05-08 02:39 49.75687 -96.78156 7265 ft 252 kts 279°
2026-05-08 02:39 49.75877 -96.80835 6536 ft 251 kts 278°
2026-05-08 02:40 49.76067 -96.83509 5979 ft 249 kts 278°
2026-05-08 02:40 49.76252 -96.86157 5484 ft 247 kts 278°
2026-05-08 02:40 49.76436 -96.88795 5020 ft 247 kts 277°
2026-05-08 02:40 49.76618 -96.91441 4557 ft 248 kts 277°
2026-05-08 02:41 49.76794 -96.94046 4388 ft 236 kts 277°
2026-05-08 02:41 49.76960 -96.96484 4328 ft 220 kts 278°
2026-05-08 02:41 49.77112 -96.98768 4265 ft 207 kts 278°
2026-05-08 02:41 49.77259 -97.00920 4181 ft 195 kts 278°
2026-05-08 02:42 49.77398 -97.02960 4103 ft 188 kts 278°
2026-05-08 02:42 49.77544 -97.04955 4017 ft 185 kts 282°
2026-05-08 02:42 49.77967 -97.06749 3896 ft 173 kts 302°
2026-05-08 02:42 49.78753 -97.08105 3665 ft 166 kts 318°
2026-05-08 02:43 49.79597 -97.09251 3466 ft 158 kts 317°
2026-05-08 02:43 49.80410 -97.10357 3244 ft 155 kts 318°
2026-05-08 02:43 49.81216 -97.11454 3041 ft 154 kts 318°
2026-05-08 02:43 49.82021 -97.12550 2834 ft 154 kts 318°
2026-05-08 02:44 49.82825 -97.13647 2611 ft 152 kts 318°
2026-05-08 02:44 49.83581 -97.14677 2421 ft 141 kts 318°
2026-05-08 02:44 49.84285 -97.15637 2231 ft 138 kts 318°
2026-05-08 02:44 49.84998 -97.16610 2045 ft 137 kts 318°
2026-05-08 02:45 49.85715 -97.17588 1853 ft 137 kts 318°
2026-05-08 02:45 49.86433 -97.18568 1660 ft 138 kts 318°
2026-05-08 02:45 49.87149 -97.19548 1444 ft 137 kts 318°
2026-05-08 02:45 49.87865 -97.20527 1250 ft 137 kts 318°
2026-05-08 02:46 49.88575 -97.21500 1073 ft 136 kts 318°
2026-05-08 02:46 49.89279 -97.22466 893 ft 135 kts 318°
2026-05-08 02:46 49.89966 -97.23407 790 ft 122 kts 318°
2026-05-08 02:46 49.90444 -97.24054 787 ft 50 kts 318°
2026-05-08 02:47 49.90612 -97.24286 789 ft 22 kts 320°
2026-05-08 02:47 49.90724 -97.24320 788 ft 18 kts 43°
2026-05-08 02:47 49.90755 -97.24156 787 ft 15 kts 76°
2026-05-08 02:47 49.90775 -97.24006 789 ft 14 kts 78°
2026-05-08 02:48 49.90794 -97.23864 788 ft 16 kts 78°
2026-05-08 02:48 49.90821 -97.23653 786 ft 22 kts 78°
2026-05-08 02:48 49.90851 -97.23422 786 ft 19 kts 85°
2026-05-08 02:48 49.90767 -97.23287 786 ft 19 kts 153°
2026-05-08 02:49 49.90683 -97.23176 786 ft 15 kts 103°
2026-05-08 02:49 49.90698 -97.23031 786 ft 12 kts 78°
2026-05-08 02:49 49.90714 -97.22912 786 ft 10 kts 78°
2026-05-08 02:49 49.90726 -97.22809 786 ft 9 kts 84°
2026-05-08 02:50 49.90693 -97.22755 786 ft 7 kts 158°
2026-05-08 02:50 49.90660 -97.22735 786 ft 3 kts 159°
2026-05-08 02:50 49.90655 -97.22732 786 ft 0 kts 159°